[[{"header":{"parameterUnit":"m.s-1","parameterCategory":1,"la1":30.2991,"la2":30.254,"lo1":-89.0895,"lo2":-89.0444,"dy":0.0017,"dx":0.0017,"nx":28,"ny":28,"refTime":"2025-08-06T21:00:00:Z","depth":0,"parameterNumber":2,"parameterNumberName":"U-component_of_WINDS"},"data":[0,0,0,0,0,0,0,0,0,0,0,0,0,0,0,0,0,0,0,0,0,0,0,0,0,0,0,0,0,0,0,0,0,0,0,0,0,0,0,0,0,0,0,0,0,0,0,0,0,0,0,0,0,0,0,0,0,0,-2.1323,-2.1322,0,-2.1249,-2.1249,-2.1248,-2.116,-2.1159,-2.1158,-2.1156,-2.1084,-2.1083,-2.1082,0,0,0,0,0,0,0,0,0,0,0,0,0,-2.1391,-2.139,-2.1323,-2.1322,-2.1321,-2.125,-2.1249,-2.1248,-2.1161,-2.1159,-2.1157,-2.1156,-2.1084,-2.1083,-2.1082,0,0,0,0,0,0,0,0,0,0,0,0,0,-2.1344,-2.139,-2.1323,-2.1269,-2.1263,-2.125,-2.1248,-2.1247,-2.1161,-2.1159,-2.1157,-2.1155,-2.1084,-2.1083,-2.1082,-2.1117,0,0,-2.1079,-2.1079,0,0,0,0,0,0,0,0,-2.1347,-2.1341,-2.1278,-2.1272,-2.1266,-2.1212,-2.1246,-2.1204,-2.1161,-2.12,-2.1156,-2.1154,-2.1128,-2.1123,-2.1114,-2.1113,-2.111,-2.1079,-2.1078,-2.1078,-2.1078,0,0,0,0,0,0,0,-2.135,-2.1344,-2.1294,-2.1277,-2.127,-2.1249,-2.124,-2.1237,-2.1176,-2.1196,-2.119,-2.1182,-2.1125,-2.1115,-2.1112,-2.1109,-2.1079,-2.1078,-2.1077,-2.1077,-2.1135,-2.1137,0,0,0,0,0,0,-2.1361,-2.1347,-2.1296,-2.1291,-2.1302,-2.125,-2.124,-2.1231,-2.1176,-2.1166,-2.1184,-2.1178,-2.1118,-2.1113,-2.1109,-2.1146,-2.1078,-2.1077,-2.1076,-2.1133,-2.1135,-2.1138,0,0,0,0,0,0,-2.1363,-2.1357,-2.1299,-2.1318,-2.1309,-2.1251,-2.1242,-2.1231,-2.1221,-2.1167,-2.1156,-2.1185,-2.1116,-2.111,-2.1116,-2.1142,-2.1076,-2.1076,-2.113,-2.1134,-2.1136,-2.1221,0,0,0,0,0,0,-2.1365,-2.1358,-2.137,-2.1319,-2.1308,-2.1306,-2.1244,-2.1231,-2.122,-2.1212,-2.1165,-2.1156,-2.1114,-2.1118,-2.1115,-2.114,-2.1075,-2.1127,-2.1132,-2.1135,-2.1216,-2.1227,-2.1236,0,0,0,0,0,-2.1368,-2.1396,-2.1371,-2.1365,-2.1321,-2.1307,-2.1301,-2.1253,-2.1222,-2.1234,-2.1199,-2.1157,-2.1141,-2.1119,-2.1115,-2.114,-2.1126,-2.113,-2.1135,-2.1211,-2.1225,-2.1236,0,0,0,0,0,0,-2.1452,-2.1389,-2.1359,-2.1372,-2.1346,-2.1293,-2.1305,-2.1268,-2.1251,-2.1244,-2.1185,-2.1175,-2.1188,-2.1165,-2.1142,-2.1172,-2.1127,-2.1131,-2.1186,-2.1199,-2.1209,-2.1214,-2.1074,0,0,0,0,0,-2.1472,-2.1466,-2.1411,-2.1428,-2.1416,-2.1364,-2.1356,-2.1321,-2.1292,-2.128,-2.1245,-2.122,-2.1209,-2.1203,-2.1189,-2.1213,-2.1202,-2.1228,-2.1239,-2.1248,-2.1252,-2.1264,-2.1275,-2.1153,-2.1153,-2.1153,0,0,-2.1513,-2.1478,-2.1477,-2.1444,-2.1419,-2.1415,-2.1355,-2.1352,-2.1349,-2.128,-2.1282,-2.1257,-2.1224,-2.1239,-2.1244,-2.122,-2.1283,-2.1254,-2.1261,-2.126,-2.127,-2.1282,-2.1292,-2.1157,-2.1156,-2.1156,0,0,-2.1586,-2.1559,-2.157,-2.1547,-2.1511,-2.1476,-2.148,-2.1433,-2.1413,-2.1415,-2.1363,-2.136,-2.1342,-2.1321,-2.1308,-2.1377,-2.1338,-2.1375,-2.1428,-2.1441,-2.1451,-2.1459,-2.1484,-2.1494,-2.1379,-2.138,-2.138,0,-2.1642,-2.1632,-2.1581,-2.1582,-2.1569,-2.1507,-2.1519,-2.15,-2.1462,-2.1455,-2.1429,-2.1407,-2.138,-2.139,-2.1408,-2.1399,-2.1402,-2.1379,-2.1453,-2.1461,-2.1468,-2.1491,-2.1501,-2.1384,-2.1384,-2.1383,-2.1383,0,-2.1703,-2.1698,-2.1712,-2.1677,-2.1666,-2.1673,-2.1623,-2.1619,-2.1586,-2.1555,-2.1559,-2.1526,-2.1506,-2.1506,-2.1473,-2.1512,-2.1498,-2.1464,-2.1418,-2.1485,-2.1506,-2.1515,-2.1391,-2.1389,-2.1388,-2.1387,0,0,-2.1824,-2.1762,-2.1768,-2.1752,-2.171,-2.1705,-2.1711,-2.169,-2.1688,-2.1666,-2.1669,-2.1657,-2.1625,-2.1611,-2.1576,-2.1588,-2.1646,-2.1552,-2.155,-2.1571,-2.1688,-2.1713,-2.1724,-2.1621,-2.1622,-2.1623,-2.169,0,-2.1889,-2.1893,-2.1848,-2.1865,-2.186,-2.1803,-2.1808,-2.1783,-2.1755,-2.1748,-2.1718,-2.171,-2.1669,-2.166,-2.1669,-2.1637,-2.1668,-2.1632,-2.1624,-2.1624,-2.1633,-2.1735,-2.1762,-2.1826,-2.1698,-2.17,-2.1701,0,-2.1964,-2.1945,-2.1962,-2.192,-2.1917,-2.1922,-2.1901,-2.1895,-2.1867,-2.1846,-2.1832,-2.1793,-2.1797,-2.1754,-2.176,-2.1736,-2.1731,-2.1715,-2.1716,-2.1713,-2.1666,-2.1734,-2.1846,-2.1856,-2.1713,-2.1712,-2.1711,0,-2.2051,-2.203,-2.2038,-2.2026,-2.1978,-2.1983,-2.1963,-2.1933,-2.1925,-2.1908,-2.1902,-2.1886,-2.1877,-2.1866,-2.1825,-2.1797,-2.1836,-2.1789,-2.1819,-2.1821,-2.1828,-2.1828,-2.1941,-2.1827,-2.1827,-2.1827,-2.1826,0,-2.2127,-2.2139,-2.2076,-2.2081,-2.2094,-2.2043,-2.2058,-2.2033,-2.2008,-2.2007,-2.1958,-2.1959,-2.1904,-2.19,-2.1868,-2.1878,-2.1875,-2.1859,-2.185,-2.1863,-2.1865,-2.1858,-2.1852,-2.1829,-2.1828,-2.1828,-2.1828,0,-2.2225,-2.2183,-2.2188,-2.2143,-2.2132,-2.2143,-2.2105,-2.2109,-2.2079,-2.208,-2.2077,-2.203,-2.2023,-2.1981,-2.1964,-2.1943,-2.1965,-2.1947,-2.1974,-2.1968,-2.2,-2.1998,-2.2111,-2.2124,-2.2003,-2.2004,-2.2005,0,-2.2276,-2.2284,-2.2241,-2.2237,-2.2219,-2.2214,-2.2206,-2.2158,-2.2151,-2.2122,-2.2129,-2.2118,-2.2106,-2.2098,-2.2063,-2.2051,-2.2033,-2.2073,-2.203,-2.2044,-2.2033,-2.2033,-2.2034,-2.2082,-2.2084,-2.2085,-2.2086,0,-2.2371,-2.235,-2.2339,-2.2323,-2.2314,-2.2299,-2.228,-2.228,-2.2228,-2.2223,-2.2215,-2.2206,-2.219,-2.218,-2.2162,-2.2143,-2.2107,-2.21,-2.2106,-2.2119,-2.2134,-2.2127,-2.1998,-2.2097,-2.2096,-2.2095,-2.2095,-2.2094,-2.2446,-2.2452,-2.2422,-2.2413,-2.2394,-2.2379,-2.238,-2.2351,-2.2344,-2.2326,-2.2299,-2.2295,-2.227,-2.2242,-2.2227,-2.2224,-2.2203,-2.2212,-2.2214,-2.2217,-2.2224,-2.2136,-2.2221,-2.2221,-2.222,-2.222,-2.222,0,-2.2539,-2.2518,-2.251,-2.2486,-2.2479,-2.2446,-2.2424,-2.2421,-2.2418,-2.2397,-2.2387,-2.238,-2.2371,-2.2337,-2.2324,-2.2329,-2.2312,-2.2328,-2.2326,-2.2323,-2.2244,-2.2239,-2.2342,-2.2342,-2.2342,-2.2342,-2.2342,-2.2342,-2.2586,-2.2594,-2.257,-2.2569,-2.2548,-2.2544,-2.2535,-2.2521,-2.2505,-2.2498,-2.249,-2.2468,-2.2443,-2.2429,-2.242,-2.241,-2.2408,-2.2429,-2.2414,-2.234,-2.2328,-2.2317,-2.2313,-2.2429,-2.2429,-2.2494,-2.2494,-2.2495]},{"header":{"parameterUnit":"m.s-1","parameterCategory":1,"la1":30.2991,"la2":30.254,"lo1":-89.0895,"lo2":-89.0444,"dy":0.0017,"dx":0.0017,"nx":28,"ny":28,"refTime":"2025-08-06T21:00:00:Z","depth":0,"parameterNumber":3,"parameterNumberName":"V-component_of_WINDS"},"data":[0,0,0,0,0,0,0,0,0,0,0,0,0,0,0,0,0,0,0,0,0,0,0,0,0,0,0,0,0,0,0,0,0,0,0,0,0,0,0,0,0,0,0,0,0,0,0,0,0,0,0,0,0,0,0,0,0,0,2.0025,2.0026,0,2.0116,2.0117,2.0118,2.0217,2.0218,2.022,2.0221,2.0309,2.031,2.0311,0,0,0,0,0,0,0,0,0,0,0,0,0,1.993,1.9931,2.0025,2.0026,2.0027,2.0116,2.0117,2.0119,2.0217,2.0218,2.022,2.0222,2.0309,2.031,2.0311,0,0,0,0,0,0,0,0,0,0,0,0,0,1.9991,1.9931,2.0025,2.0087,2.0093,2.0116,2.0117,2.0119,2.0216,2.0218,2.0221,2.0223,2.0309,2.031,2.0312,2.0278,0,0,2.0316,2.0317,0,0,0,0,0,0,0,0,1.9987,1.9994,2.0077,2.0083,2.009,2.0158,2.0116,2.0172,2.0216,2.0169,2.0221,2.0224,2.0257,2.0263,2.0275,2.0282,2.0286,2.0316,2.0317,2.0318,2.0318,0,0,0,0,0,0,0,1.9983,1.9991,2.0061,2.0078,2.0086,2.0108,2.012,2.0127,2.02,2.0174,2.0181,2.0191,2.0261,2.0273,2.0278,2.0288,2.0316,2.0318,2.0319,2.0319,2.027,2.0268,0,0,0,0,0,0,1.997,1.9987,2.0058,2.0064,2.0043,2.0108,2.0121,2.0134,2.02,2.0212,2.0189,2.0195,2.027,2.0276,2.0281,2.0245,2.0318,2.0319,2.032,2.0272,2.027,2.0267,0,0,0,0,0,0,1.9968,1.9975,2.0054,2.0027,2.0039,2.0108,2.0121,2.0134,2.0147,2.0212,2.0225,2.0189,2.0271,2.0279,2.0278,2.025,2.032,2.0322,2.0275,2.0272,2.0269,2.0173,0,0,0,0,0,0,1.9964,1.9974,1.9963,2.0026,2.004,2.0051,2.012,2.0134,2.015,2.0159,2.0215,2.0226,2.0274,2.0275,2.028,2.0253,2.0323,2.0278,2.0274,2.027,2.0179,2.0167,2.0157,0,0,0,0,0,1.9961,1.9932,1.9962,1.997,2.0029,2.0049,2.0057,2.0114,2.0147,2.0136,2.0177,2.0224,2.0252,2.0275,2.028,2.0253,2.028,2.0275,2.027,2.0184,2.017,2.0157,0,0,0,0,0,0,1.9863,1.9942,1.9976,1.9968,2.0001,2.0066,2.0054,2.0097,2.012,2.0128,2.0196,2.0207,2.0198,2.0226,2.0249,2.0224,2.0273,2.0269,2.0206,2.0192,2.0181,2.0174,2.0324,0,0,0,0,0,1.9841,1.9853,1.992,1.9906,1.9921,1.9984,1.9996,2.0037,2.0073,2.0088,2.0129,2.0162,2.0178,2.0187,2.0205,2.0184,2.0197,2.0169,2.0157,2.0148,2.0143,2.0132,2.0119,2.0251,2.0251,2.0251,0,0,1.9794,1.9839,1.9842,1.9887,1.9918,1.9927,1.9996,2.0003,2.0009,2.0088,2.009,2.0121,2.0162,2.015,2.0147,2.0173,2.0109,2.0141,2.0133,2.0134,2.0125,2.0113,2.0102,2.0248,2.0248,2.0249,0,0,1.9713,1.9749,1.9741,1.977,1.9817,1.9859,1.9856,1.9915,1.9939,1.9942,2.0001,2.0009,2.0036,2.0062,2.0079,2.0007,2.005,2.0011,1.9952,1.994,1.993,1.9921,1.9893,1.9883,2.0006,2.0006,2.0006,0,1.9649,1.9667,1.973,1.9733,1.9751,1.9824,1.9815,1.984,1.9889,1.9898,1.9927,1.9962,1.9994,1.9989,1.9971,1.9983,1.9981,2.0004,1.9926,1.9918,1.9911,1.9885,1.9875,2.0001,2.0002,2.0002,2.0003,0,1.9584,1.9595,1.9582,1.9629,1.9645,1.9642,1.9703,1.9711,1.9751,1.9789,1.979,1.9832,1.9859,1.9861,1.9899,1.986,1.9875,1.9914,1.9964,1.9892,1.9869,1.986,1.9994,1.9995,1.9997,1.9998,0,0,1.9444,1.9526,1.952,1.9542,1.9598,1.9607,1.9606,1.9634,1.9639,1.967,1.9669,1.969,1.9726,1.9745,1.9787,1.9777,1.9714,1.9817,1.9819,1.9795,1.9672,1.964,1.9628,1.9744,1.9742,1.9741,1.9668,0,1.9372,1.9377,1.9433,1.9421,1.943,1.95,1.9499,1.9532,1.9567,1.9579,1.9618,1.9631,1.9679,1.969,1.9684,1.9723,1.969,1.973,1.9741,1.9741,1.9728,1.9617,1.9584,1.9513,1.9659,1.9658,1.9657,0,1.9289,1.9316,1.9304,1.936,1.9366,1.9364,1.9394,1.9405,1.9443,1.9469,1.949,1.9537,1.9538,1.9586,1.9587,1.9612,1.962,1.964,1.9639,1.9641,1.9693,1.9613,1.9492,1.948,1.9643,1.9645,1.9646,0,1.9185,1.9219,1.9216,1.9233,1.9297,1.9294,1.9321,1.9361,1.9374,1.9399,1.9408,1.9432,1.9445,1.9462,1.9514,1.9545,1.9507,1.9561,1.9527,1.9526,1.9515,1.9515,1.9391,1.9523,1.9523,1.9523,1.9524,0,1.9098,1.9087,1.917,1.9168,1.9158,1.9223,1.921,1.9243,1.9278,1.9282,1.9344,1.9346,1.9415,1.9424,1.9465,1.9458,1.9463,1.9483,1.9494,1.9477,1.9474,1.9482,1.9487,1.9521,1.9521,1.9522,1.9522,0,1.898,1.9035,1.9036,1.9098,1.9113,1.9103,1.9154,1.9154,1.9193,1.9197,1.9202,1.9263,1.9277,1.9331,1.9357,1.9384,1.9363,1.9385,1.935,1.9357,1.932,1.9322,1.9195,1.9181,1.9323,1.9322,1.9321,0,1.892,1.8913,1.8974,1.8982,1.9006,1.9018,1.9032,1.9095,1.9106,1.9148,1.9142,1.9161,1.918,1.9198,1.9243,1.9264,1.9285,1.924,1.9289,1.9271,1.9282,1.9281,1.928,1.9228,1.9226,1.9225,1.9224,0,1.8806,1.8834,1.8852,1.8879,1.8894,1.8918,1.8945,1.8948,1.9017,1.9026,1.9042,1.9057,1.9084,1.9101,1.9129,1.9155,1.9199,1.9208,1.9201,1.9183,1.9162,1.9171,1.932,1.921,1.9212,1.9213,1.9213,1.9214,1.8714,1.8711,1.8754,1.8771,1.8799,1.8823,1.8825,1.8865,1.8879,1.8908,1.8943,1.8954,1.899,1.9032,1.9054,1.9062,1.9087,1.9077,1.9075,1.9071,1.9062,1.9162,1.9067,1.9068,1.9068,1.9069,1.9069,0,1.8602,1.8633,1.8649,1.8686,1.8699,1.8742,1.8774,1.8782,1.8791,1.8822,1.8839,1.8856,1.8873,1.892,1.8941,1.8938,1.8959,1.8941,1.8941,1.8945,1.9039,1.9042,1.8923,1.8923,1.8923,1.8923,1.8924,1.8924,1.8546,1.8543,1.8575,1.8585,1.8615,1.8627,1.8642,1.8663,1.8689,1.8705,1.872,1.8751,1.8787,1.8811,1.8828,1.8841,1.8845,1.882,1.8839,1.8925,1.8939,1.8952,1.8956,1.8821,1.8821,1.8745,1.8745,1.8744]}]]